FW2321 Weather Reports


Display with metric or nautical units.
time (UTC)temp
F
wind
direction
speed
MPH
gust
MPH
rain 1hr
in
rain 24hr
in
rain mn
in
humidity
%
barometer
mb
20260505091035 45 324 1.0 5.0 0.00 0.00 0.00 61 1005.7
20260505090533 46 296 0.0 4.0 0.00 0.00 0.00 61 1005.6
20260505090053 46 297 1.0 5.0 0.00 0.00 0.00 60 1005.4
20260505085534 46 311 1.0 6.0 0.00 0.00 0.00 60 1005.3
20260505085034 46 314 2.0 8.0 0.00 0.00 0.00 59 1005.0
20260505084549 46 355 3.0 9.0 0.00 0.00 0.00 59 1004.9
20260505084037 46 5 3.0 9.0 0.00 0.00 0.00 59 1004.8
20260505083538 46 344 4.0 11.0 0.00 0.00 0.00 59 1004.8
20260505083049 46 16 4.0 11.0 0.00 0.00 0.00 60 1004.6
20260505082536 47 13 3.0 8.0 0.00 0.00 0.00 60 1004.3
20260505082038 47 355 2.0 8.0 0.00 0.00 0.00 60 1004.4
20260505081559 47 335 2.0 9.0 0.00 0.00 0.00 60 1004.3
20260505081038 48 325 3.0 9.0 0.00 0.00 0.00 60 1004.4
20260505080541 48 344 1.0 9.0 0.00 0.00 0.00 60 1004.3
20260505080049 48 347 1.0 15.0 0.00 0.00 0.00 59 1004.0
20260505075537 48 346 3.0 17.0 0.00 0.00 0.00 59 1003.8
20260505075038 49 15 8.0 17.0 0.00 0.00 0.00 58 1003.6
20260505074605 49 337 7.0 18.0 0.00 0.00 0.00 58 1003.5
20260505074038 49 68 9.0 18.0 0.00 0.00 0.00 58 1003.1
20260505073538 49 14 6.0 14.0 0.00 0.00 0.00 59 1003.0
20260505073051 50 26 2.0 6.0 0.00 0.00 0.00 58 1003.3
20260505072538 50 352 1.0 10.0 0.00 0.00 0.00 58 1003.2
20260505072037 50 294 3.0 10.0 0.00 0.00 0.00 57 1003.1
20260505071549 50 9 4.0 9.0 0.00 0.00 0.00 57 1003.0
20260505071038 51 34 2.0 10.0 0.00 0.00 0.00 57 1003.0
20260505070538 51 316 3.0 10.0 0.00 0.00 0.00 56 1002.8
20260505070052 51 327 4.0 10.0 0.00 0.00 0.00 56 1002.8
20260505065535 51 331 3.0 10.0 0.00 0.00 0.00 57 1003.0
20260505065037 52 310 2.0 15.0 0.00 0.00 0.00 57 1003.0
20260505064551 52 305 6.0 15.0 0.00 0.00 0.00 57 1002.9
20260505064037 52 316 5.0 13.0 0.00 0.00 0.00 57 1002.9
20260505063538 52 309 4.0 12.0 0.00 0.00 0.00 56 1002.6
20260505063055 53 347 4.0 16.0 0.00 0.00 0.00 56 1002.3
20260505062538 53 342 7.0 16.0 0.00 0.00 0.00 55 1002.3
20260505062037 53 9 8.0 18.0 0.00 0.00 0.00 54 1002.3
20260505061617 53 325 9.0 18.0 0.00 0.00 0.00 53 1002.2
20260505061037 54 340 8.0 17.0 0.00 0.00 0.00 53 1002.1
20260505060539 54 5 8.0 15.0 0.00 0.00 0.00 53 1002.1
20260505060056 54 324 7.0 18.0 0.00 0.00 0.00 53 1002.0
20260505055537 55 19 9.0 18.0 0.00 0.00 0.00 52 1002.1
20260505055040 55 360 7.0 18.0 0.00 0.00 0.00 52 1002.2
20260505054601 55 360 4.0 13.0 0.00 0.00 0.00 51 1002.1
20260505054037 55 351 5.0 14.0 0.00 0.00 0.00 51 1001.9
20260505053534 55 298 4.0 14.0 0.00 0.00 0.00 51 1001.9
20260505053044 55 294 4.0 12.0 0.00 0.00 0.00 50 1001.7
20260505052535 56 338 5.0 12.0 0.00 0.00 0.00 49 1001.7
20260505052034 56 288 4.0 12.0 0.00 0.00 0.00 49 1001.7
20260505051541 56 340 4.0 12.0 0.00 0.00 0.00 48 1001.4
20260505051034 57 302 4.0 12.0 0.00 0.00 0.00 48 1001.4
20260505050532 57 323 4.0 12.0 0.00 0.00 0.00 47 1001.2
20260505041543 60 338 8.0 18.0 0.00 0.00 0.00 42 1000.2
20260505041034 60 339 6.0 15.0 0.00 0.00 0.00 43 1000.3
20260505040536 60 256 6.0 14.0 0.00 0.00 0.00 43 1000.2
20260505040044 60 309 5.0 13.0 0.00 0.00 0.00 44 1000.1
20260505035534 60 279 6.0 11.0 0.00 0.00 0.00 45 1000.0
20260505035034 61 313 4.0 11.0 0.00 0.00 0.00 46 1000.0
20260505034541 61 322 4.0 11.0 0.00 0.00 0.00 46 1000.1
20260505034034 61 296 2.0 11.0 0.00 0.00 0.00 46 1000.1
20260505033534 61 329 4.0 11.0 0.00 0.00 0.00 46 1000.1
20260505033051 61 288 3.0 9.0 0.00 0.00 0.00 46 1000.2
20260505032533 62 315 2.0 11.0 0.00 0.00 0.00 46 1000.2
20260505032037 62 314 4.0 11.0 0.00 0.00 0.00 45 1000.2
20260505031545 62 309 3.0 13.0 0.00 0.00 0.00 45 1000.2
20260505031035 62 277 5.0 13.0 0.00 0.00 0.00 45 1000.0
20260505030534 62 297 5.0 12.0 0.00 0.00 0.00 45 999.8
20260505030043 62 302 3.0 9.0 0.00 0.00 0.00 45 999.8
20260505025534 62 285 3.0 10.0 0.00 0.00 0.00 44 999.6
20260505025035 62 293 4.0 10.0 0.00 0.00 0.00 44 999.7
20260505024602 63 321 1.0 10.0 0.00 0.00 0.00 44 999.8
20260505024129 63 317 3.0 11.0 0.00 0.00 0.00 44 999.7
20260505023535 63 280 4.0 11.0 0.00 0.00 0.00 44 999.5
20260505023049 64 253 6.0 15.0 0.00 0.00 0.00 43 999.4
20260505022537 64 293 4.0 15.0 0.00 0.00 0.00 44 999.1
20260505022038 64 286 4.0 12.0 0.00 0.00 0.00 44 999.1
20260505021602 65 345 6.0 15.0 0.00 0.00 0.00 44 999.1
20260505021037 65 317 7.0 15.0 0.00 0.00 0.00 44 999.0
20260505020537 65 279 6.0 15.0 0.00 0.00 0.00 44 998.8
20260505020049 66 331 4.0 12.0 0.00 0.00 0.00 46 998.6
20260505015538 66 307 3.0 12.0 0.00 0.00 0.00 47 998.5
20260505015038 67 274 4.0 12.0 0.00 0.00 0.00 46 998.3
20260505014546 67 317 6.0 12.0 0.00 0.00 0.00 46 998.2
20260505014036 68 296 3.0 9.0 0.00 0.00 0.00 48 998.0
20260505013542 68 328 4.0 14.0 0.00 0.00 0.00 48 997.8
20260505013043 68 307 6.0 14.0 0.00 0.00 0.00 48 997.7
20260505012535 68 329 2.0 9.0 0.00 0.00 0.00 49 997.3
20260505012034 69 289 2.0 14.0 0.00 0.00 0.00 48 997.0
20260505011554 69 321 3.0 14.0 0.00 0.00 0.00 47 996.7
20260505011035 70 310 4.0 13.0 0.00 0.00 0.00 47 996.3
20260505010533 70 342 4.0 16.0 0.00 0.00 0.00 46 996.3
20260505010044 70 290 6.0 16.0 0.00 0.00 0.00 46 996.2
20260505005537 71 300 5.0 14.0 0.00 0.00 0.00 45 996.1
20260505005038 71 302 5.0 19.0 0.00 0.00 0.00 46 996.0
20260505004549 72 355 5.0 19.0 0.00 0.00 0.00 45 995.9
20260505004037 72 292 6.0 13.0 0.00 0.00 0.00 45 995.7
20260505003537 72 294 4.0 12.0 0.00 0.00 0.00 45 995.6
20260505003046 73 326 3.0 8.0 0.00 0.00 0.00 46 995.4
20260505002534 73 258 2.0 8.0 0.00 0.00 0.00 47 995.2
20260505002037 73 229 2.0 8.0 0.00 0.00 0.00 46 994.9
20260505001546 73 213 2.0 8.0 0.00 0.00 0.00 45 994.9
20260505001035 74 208 2.0 8.0 0.00 0.00 0.00 45 994.9
20260505000535 74 225 2.0 9.0 0.00 0.00 0.00 44 995.0
20260505000046 74 207 3.0 9.0 0.00 0.00 0.00 44 995.1
20260504235538 74 230 2.0 8.0 0.00 0.00 0.00 43 995.1
20260504235036 74 217 2.0 8.0 0.00 0.00 0.00 43 994.9
20260504234548 75 270 2.0 7.0 0.00 0.00 0.00 42 994.9
20260504234042 75 213 3.0 9.0 0.00 0.00 0.00 41 995.0
20260504233533 75 217 3.0 9.0 0.00 0.00 0.00 42 995.1
20260504233054 75 261 4.0 14.0 0.00 0.00 0.00 42 995.2
20260504232534 74 214 3.0 14.0 0.00 0.00 0.00 44 995.3
20260504232034 74 291 3.0 14.0 0.00 0.00 0.00 44 995.4
20260504231539 73 287 4.0 11.0 0.00 0.00 0.00 43 995.6
20260504231034 73 213 4.0 22.0 0.00 0.00 0.00 42 995.5
20260504230534 74 234 8.0 22.0 0.00 0.00 0.00 41 995.8
20260504230046 75 227 6.0 35.0 0.00 0.00 0.00 41 995.8
20260504225533 75 232 12.0 35.0 0.00 0.00 0.00 41 996.1
20260504225034 75 215 3.0 13.0 0.00 0.00 0.00 41 995.8
20260504224543 75 298 4.0 15.0 0.00 0.00 0.00 41 995.7
20260504224036 76 219 6.0 17.0 0.00 0.00 0.00 38 995.6
20260504223534 77 227 8.0 17.0 0.00 0.00 0.00 39 995.8
20260504223044 78 218 6.0 17.0 0.00 0.00 0.00 41 995.6
20260504222618 77 219 7.0 19.0 0.00 0.00 0.00 41 995.7
20260504222036 77 240 6.0 19.0 0.00 0.00 0.00 40 995.7
20260504221558 78 244 7.0 19.0 0.00 0.00 0.00 38 995.4
20260504221033 78 213 7.0 19.0 0.00 0.00 0.00 39 995.7
20260504220536 78 220 6.0 14.0 0.00 0.00 0.00 40 995.7
20260504220113 78 259 5.0 15.0 0.00 0.00 0.00 39 995.9
20260504215537 77 251 7.0 15.0 0.00 0.00 0.00 38 996.0
20260504215036 76 289 5.0 16.0 0.00 0.00 0.00 39 995.8
20260504214548 77 238 7.0 16.0 0.00 0.00 0.00 38 995.9
20260504214040 77 266 5.0 17.0 0.00 0.00 0.00 40 995.9
20260504213537 76 231 8.0 17.0 0.00 0.00 0.00 38 996.0
20260504213102 77 190 5.0 16.0 0.00 0.00 0.00 37 996.0
20260504212534 78 267 5.0 18.0 0.00 0.00 0.00 40 996.0
20260504212037 78 186 9.0 18.0 0.00 0.00 0.00 35 996.0
20260504211543 78 245 8.0 18.0 0.00 0.00 0.00 38 996.2
20260504211034 78 230 4.0 15.0 0.00 0.00 0.00 38 996.4
20260504210537 78 181 4.0 18.0 0.00 0.00 0.00 41 996.3
20260504210041 78 202 5.0 18.0 0.00 0.00 0.00 39 996.2
20260504205537 78 237 6.0 18.0 0.00 0.00 0.00 35 996.7
20260504205034 78 286 8.0 18.0 0.00 0.00 0.00 40 996.4
20260504204601 78 218 6.0 16.0 0.00 0.00 0.00 41 996.4
20260504204038 78 254 8.0 16.0 0.00 0.00 0.00 37 996.4
20260504203540 78 297 3.0 14.0 0.00 0.00 0.00 40 996.6
20260504203048 78 222 6.0 14.0 0.00 0.00 0.00 37 996.5
20260504202536 78 253 6.0 16.0 0.00 0.00 0.00 37 996.7
20260504202042 78 214 5.0 19.0 0.00 0.00 0.00 37 996.7
20260504201544 77 200 7.0 19.0 0.00 0.00 0.00 38 996.7
20260504201037 78 225 9.0 19.0 0.00 0.00 0.00 37 997.3
20260504200539 77 227 7.0 19.0 0.00 0.00 0.00 38 996.8
20260504200057 78 216 7.0 18.0 0.00 0.00 0.00 41 997.1
20260504195533 78 222 5.0 14.0 0.00 0.00 0.00 37 997.0
20260504195035 77 190 4.0 14.0 0.00 0.00 0.00 37 997.1
20260504194548 77 230 5.0 20.0 0.00 0.00 0.00 38 997.4
20260504194034 77 273 7.0 20.0 0.00 0.00 0.00 36 997.2
20260504193535 77 261 9.0 19.0 0.00 0.00 0.00 37 997.2
20260504193041 77 255 4.0 18.0 0.00 0.00 0.00 40 997.1
20260504192536 77 267 9.0 18.0 0.00 0.00 0.00 36 997.2
20260504192033 77 227 6.0 15.0 0.00 0.00 0.00 38 997.2
20260504191541 77 227 7.0 14.0 0.00 0.00 0.00 37 997.2
20260504191037 76 263 5.0 14.0 0.00 0.00 0.00 41 997.3
20260504190535 76 219 6.0 19.0 0.00 0.00 0.00 39 997.4
20260504190048 76 191 7.0 19.0 0.00 0.00 0.00 36 997.3
20260504185534 76 242 10.0 22.0 0.00 0.00 0.00 35 997.2
20260504185035 76 232 6.0 22.0 0.00 0.00 0.00 40 997.2
20260504184557 76 214 7.0 19.0 0.00 0.00 0.00 38 997.3
20260504184034 76 225 9.0 20.0 0.00 0.00 0.00 36 997.4
20260504183538 76 234 9.0 24.0 0.00 0.00 0.00 37 997.7
20260504183051 75 185 8.0 24.0 0.00 0.00 0.00 38 997.8
20260504182534 75 177 10.0 24.0 0.00 0.00 0.00 36 997.7
20260504182033 75 207 7.0 23.0 0.00 0.00 0.00 38 997.7
20260504181547 75 265 8.0 23.0 0.00 0.00 0.00 38 997.9
20260504181038 74 233 9.0 22.0 0.00 0.00 0.00 38 997.7
20260504180540 74 223 8.0 21.0 0.00 0.00 0.00 39 997.8
20260504180048 74 213 7.0 19.0 0.00 0.00 0.00 41 997.9
20260504175539 74 223 10.0 19.0 0.00 0.00 0.00 37 997.8
20260504175041 74 225 8.0 26.0 0.00 0.00 0.00 38 998.0
20260504174549 74 183 6.0 26.0 0.00 0.00 0.00 38 998.1
20260504174037 74 186 9.0 24.0 0.00 0.00 0.00 38 998.1
20260504173535 74 180 10.0 24.0 0.00 0.00 0.00 42 998.1
20260504173042 73 204 9.0 21.0 0.00 0.00 0.00 39 998.1
20260504172533 74 234 7.0 19.0 0.00 0.00 0.00 40 998.2
20260504172035 74 293 7.0 21.0 0.00 0.00 0.00 43 998.2
20260504171545 74 281 4.0 21.0 0.00 0.00 0.00 43 998.3
20260504171034 74 217 5.0 13.0 0.00 0.00 0.00 44 998.4
20260504170533 74 245 6.0 14.0 0.00 0.00 0.00 40 998.5
20260504151034 69 194 10.0 19.0 0.00 0.00 0.00 46 1000.1
20260504150536 68 200 6.0 23.0 0.00 0.00 0.00 49 1000.1
20260504141033 65 205 7.0 15.0 0.00 0.00 0.00 52 1000.5
20260504140538 64 195 8.0 14.0 0.00 0.00 0.00 51 1000.7
20260504130534 59 209 4.0 14.0 0.00 0.00 0.00 60 1001.2
20260504110536 41 209 1.0 3.0 0.00 0.00 0.00 92 1001.6
20260504100537 42 0 0.0 4.0 0.00 0.00 0.00 92 1001.6